Location: Castelbiague
(43.0361°N, 0.9246°E)
Time: 10:16:37
(UTC+00:00)

Aureole 1 Rocket - Pass Details

Date: 17 June 2021
Orbit: 377 x 1372 km, 73.9° (Epoch: 03 August)

Event Time Altitude Azimuth Distance (km) Brightness Sun altitude
Rises 21:23:16 0° 340° (NNW) 3,328 8.4 -14.7°
Reaches altitude 10° 21:25:27 10° 341° (NNW) 2,528 7.4 -14.9°
Maximum altitude 21:31:25 83° 69° (ENE) 1,060 4.1 -15.6°
Enters shadow 21:36:33 22° 157° (SSE) 2,319 5.3 -16.1°
